Regional Weather Roundup
Issued by NWS Upton, NY

Home | Current Version | Previous Version | Text Only | Print | Product List | Glossary On
Versions: 1 2 3 4 5 6 7 8 9 10 11 12 13 14 15 16 17 18 19 20 21 22 23 24 25 26 27
000
ASUS41 KOKX 181008
RWROKX

REGIONAL WEATHER ROUNDUP
NATIONAL WEATHER SERVICE NEW YORK NY
500 AM EST WED JAN 18 2017

NOTE: "FAIR" INDICATES FEW OR NO CLOUDS BELOW 12,000 FEET WITH NO
SIGNIFICANT WEATHER AND/OR OBSTRUCTIONS TO VISIBILITY.

NYZ071-072-176-178-NJZ106-104-181100-
NEW YORK CITY METRO AREA

CITY           SKY/WX    TMP DP  RH WIND       PRES   REMARKS
Central Park   CLOUDY    40  39  97 E7        29.89F
Wall St Helipt CLOUDY    41  39  93 NE13      29.87F
Bronx Bot Gard NOT AVBL
LaGuardia APRT CLOUDY    41  39  93 NE15      29.87F
Kennedy INTL   CLOUDY    41  38  89 NE8       29.88F
Breezy Point     N/A     39 N/A N/A N7          N/A  WCI  34
Newark/Liberty CLOUDY    38  38 100 N7        29.87F FOG     WCI  33
Teterboro      RAIN      39  37  92 N6        29.88F FOG     WCI  35
$$

NYZ177-179-078>081-181100-
LONG ISLAND NEW YORK

CITY           SKY/WX    TMP DP  RH WIND       PRES   REMARKS
Jones Beach      N/A     39 N/A N/A NE10        N/A  WCI  32
Matinecock PT  NOT AVBL
Farmingdale    LGT RAIN  41  40  96 NE9       29.88R
MacArthur/ISP  LGT RAIN  41  41 100 NE9       29.88R
Shirley        LGT RAIN  42  42 100 N8        29.89R
Westhampton    LGT RAIN  43  41  93 NE10      29.88F
Southampton    NOT AVBL
Bridgehampton  NOT AVBL
East Hampton   DRIZZLE   41  40  95 E12G20    29.89R
Montauk          N/A     41  40  96 NE12G24   29.91S
$$

NYZ052-065-067-181100-
HUDSON VALLEY

CITY           SKY/WX    TMP DP  RH WIND       PRES   REMARKS
White Plains   CLOUDY    39  37  92 NE9       29.86F WCI  33
Newburgh       CLOUDY    34  34 100 CALM      29.91F FOG
Montgomery     CLOUDY    35  33  92 NE6       29.89F FOG     WCI  30
Poughkeepsie   CLOUDY    33  32  96 N3        29.92S FOG
Albany         LGT SNOW  33  31  92 CALM      29.94S FOG
$$

NJZ001-105-106-008-010-013-015-019>022-104-181100-
NEW JERSEY

CITY           SKY/WX    TMP DP  RH WIND       PRES   REMARKS
Newark/Liberty CLOUDY    38  38 100 N7        29.87F FOG     WCI  33
Teterboro      RAIN      39  37  92 N6        29.88F FOG     WCI  35
Caldwell       CLOUDY    37  36  96 CALM      29.89S
Somerville     CLOUDY    38  36  92 CALM      29.87F
Linden         CLOUDY    39  37  94 CALM      29.88F
Sussex         CLOUDY    34  34 100 E3        29.90S
Andover          N/A     33  32  96 NE5       29.89S WCI  29
Trenton        CLOUDY    38  38 100 N6        29.88S FOG     WCI  33
Millville      CLOUDY    44  44 100 N3        29.87S FOG
Atlantic City  CLOUDY    45  44  97 NW8       29.87R FOG
Wrightstown    CLOUDY    41  39  93 N8        29.86S FOG
Toms River     LGT RAIN  42  41  96 N8        29.87F
Belmar         FOG       39  39 100 NW7       29.88F VSB 1/2 WCI  34
$$

PAZ047>061-062-071-181100-
EASTERN PENNSYLVANIA

CITY           SKY/WX    TMP DP  RH WIND       PRES   REMARKS
Philadelphia   CLOUDY    42  40  92 N5        29.90R
Allentown      CLOUDY    37  34  89 NE3       29.90R
Scranton       CLOUDY    36  35  96 E3        29.86R
$$

CTZ002-004>006-009-010-012-RIZ004-006-007-MAZ004-011-015-181100-
SOUTHERN NEW ENGLAND
 IN CT

CITY           SKY/WX    TMP DP  RH WIND       PRES   REMARKS
Bradley INTL   LGT RAIN  35  34  96 N8        29.95S WCI  29
Hartford       CLOUDY    35  35 100 N7        29.94S FOG     WCI  29
Danbury        CLOUDY    36  34  92 NE5       29.91S WCI  32
Wtrbury/Oxford CLOUDY    36  32  87 NE7G16    29.90S WCI  30
Bridgeport     CLOUDY    41  37  86 NE8       29.91S
Meriden        LGT RAIN  37  34  89 N8        29.92F FOG     WCI  31
New Haven      LGT RAIN  38  37  97 NE7       29.89F WCI  33
Chester        MIX PCPN  37  37 100 NE5       29.90F WCI  34
Groton         LGT RAIN  39  37  92 NE12      29.93R WCI  32
Wilimantic     LGT RAIN  39  37  92 N5        29.94F FOG

 IN RI

CITY           SKY/WX    TMP DP  RH WIND       PRES   REMARKS
Providence     CLOUDY    38  36  92 NE9       29.95F FOG     WCI  31
Block Island   NOT AVBL
Westerly       LGT RAIN  40  36  86 NE10G18   29.93R WCI  33
 IN MA

CITY           SKY/WX    TMP DP  RH WIND       PRES   REMARKS
Boston         LGT RAIN  37  37 100 E18       30.01S FOG     WCI  27
Worcester      SNOW      31  30  96 NE9       29.94S VSB 1/2 WCI  23
Westfield      LGT RAIN  33  33 100 N8        29.96S WCI  26
Provincetown   CLOUDY    38  36  92 E13       29.99S WCI  30
Nantucket      CLOUDY    40  38  93 E17G23    29.92F FOG     WCI  31
$$

ANZ330-335-338-340-345-350-353-355-181100-
COASTAL MARINE OBSERVATIONS


STATION/POSITION TIME  SKY/WX   TEMP    WIND        PRES    VSBY  WAVE
                                AIR SEA DIR/SP/G                  HT/PER
                 (UTC)          (F)     (DEG/KT/KT) (MB)    (MI)  (FT/S)
NY HARB ENTRANCE 0850            42 44   10/ 10/ 12 1011.4          3/ 5
20 S FIRE ISLAND 0850            45 45   20/  4/  8 1010.3          3/ 4
GREAT SOUTH BAY  NOT AVBL
23 SSW MONTAUK P 0850            47 48   80/ 16/ 17 1011.6          5/ 6
15 E BARNEGAT LI 0930               43                N/A           2/ 5
HUDSON CANYON    0850            52 53              1010.7          3/ 5
KINGS POINT      0936            39 38              1011.4
EXECUTION ROCKS  0945            40      60/ 10/ 16   N/A
CENTRAL LI SOUND 0930            41      70/ 17/ 21   N/A           3/ 4
EASTERN LI SOUND NOT AVBL
ROBBINS REEF     0948            39     360/  2/  5 1011.8
$$


>>>>>>>>>>>>>>>>>>>>>>>>>>>> KEY <<<<<<<<<<<<<<<<<<<<<<<<<<<
>                                                          <
>     SKY/WX - Sky Condition/Present Weather               <
>     TMP    - Temperature in Fahrenheit                   <
>     DP     - Dew Point in Fahrenheit                     <
>     RH     - Relative Humidity in Percent                <
>     WIND   - Direction (from) and Speed in MPH           <
>     PRES   - Mean Sea Level Pressure (inches of Hg)      <
>     WCI    - Wind Chill Index                            <
>     VSB    - VISIBILITY IN MILES                         <
>     HX     - HEAT INDEX                                  <
>     TC     - TEMPERATURE IN CELSIUS                      <
>     VRB    - VARIABLE WIND DIRECTION                     <
>                                                          <
>>>>>>>>>>>>>>>>>>>>>>>>>>>> KEY <<<<<<<<<<<<<<<<<<<<<<<<<<<




USA.gov is the U.S. government's official web portal to all federal, state and local government web resources and services.